This is the latest recevied weather packets stored in our database for station/object DL9GJ-6. If no packets are shown the sender has not sent any weather packets the latest 10 day(s).
| Time | Temp. | Humidity | Pressure | Rain* | Wind** | Luminosity | Snow |
|---|---|---|---|---|---|---|---|
| 1777995862 | 17.22° C | 71% | 1006.1 hPa | 0.25 mm | - | 195 W/m² | - |
| 1777995501 | 17.22° C | 70% | 1006.1 hPa | 0.25 mm | - | 205 W/m² | - |
| 1777995142 | 17.22° C | 71% | 1006.1 hPa | 0.25 mm | - | 189 W/m² | - |
| 1777994782 | 16.67° C | 73% | 1006.2 hPa | 0.25 mm | - | 207 W/m² | - |
| 1777994769 | 16.67° C | 73% | 1006.2 hPa | 0.25 mm | - | 207 W/m² | - |
| 1777994421 | 16.67° C | 72% | 1006.1 hPa | 0 mm | - | 200 W/m² | - |
| 1777994061 | 16.67° C | 70% | 1006 hPa | 0 mm | - | 249 W/m² | - |
| 1777994053 | 16.67° C | 70% | 1006 hPa | 0 mm | - | 249 W/m² | - |
| 1777993702 | 16.67° C | 71% | 1006.2 hPa | 0 mm | - | 236 W/m² | - |
| 1777993343 | 16.67° C | 73% | 1006.2 hPa | 0 mm | - | 235 W/m² | - |
| 1777993328 | 16.67° C | 73% | 1006.2 hPa | 0 mm | - | 235 W/m² | - |
| 1777992982 | 16.67° C | 72% | 1006.3 hPa | 0 mm | - | 226 W/m² | - |
| 1777992621 | 16.67° C | 73% | 1006.1 hPa | 0 mm | - | 209 W/m² | - |
| 1777992261 | 16.67° C | 73% | 1006.2 hPa | 0 mm | - | 180 W/m² | - |
| 1777992248 | 16.67° C | 73% | 1006.2 hPa | 0 mm | - | 180 W/m² | - |
| 1777991902 | 16.67° C | 74% | 1006.2 hPa | 0 mm | - | 194 W/m² | - |
| 1777991542 | 16.67° C | 72% | 1006.3 hPa | 0 mm | - | 241 W/m² | - |
| 1777991181 | 16.67° C | 72% | 1006.2 hPa | 0 mm | - | 262 W/m² | - |
| 1777990821 | 16.67° C | 72% | 1006.3 hPa | 0 mm | - | 213 W/m² | - |
| 1777990462 | 16.67° C | 72% | 1006.4 hPa | 0 mm | - | 117 W/m² | - |
| 1777989741 | 16.67° C | 73% | 1006.3 hPa | 0 mm | - | 135 W/m² | - |
| 1777989729 | 16.67° C | 73% | 1006.3 hPa | 0 mm | - | 135 W/m² | - |
| 1777989382 | 16.67° C | 73% | 1006.3 hPa | 0 mm | - | 153 W/m² | - |
| 1777989022 | 17.22° C | 74% | 1006.2 hPa | 0 mm | - | 144 W/m² | - |
| 1777988661 | 17.22° C | 74% | 1006 hPa | 0 mm | - | 247 W/m² | - |
* Rain latest hour (hover to see other rain measurements)
** Current wind speed in m/s (hover to see current wind gust speed)